DW8032 Weather Reports


time (UTC)temp
F
wind
direction
speed
knots
gust
knots
rain 1hr
in
rain 24hr
in
rain mn
in
humidity
%
barometer
mb
20260505070001 54 259 1.7 3.5 0.00 0.00 0.00 59 1017.1
20260505065000 54 236 1.7 3.5 0.00 0.00 0.00 58 1017.2
20260505063959 54 242 1.7 3.5 0.00 0.00 0.00 58 1017.4
20260505063000 54 238 1.7 2.6 0.00 0.00 0.00 58 1017.4
20260505062000 54 277 0.9 3.5 0.00 0.00 0.00 58 1017.5
20260505060001 54 266 0.9 1.7 0.00 0.00 0.00 58 1017.6
20260505054959 55 245 0.9 2.6 0.00 0.00 0.00 58 1017.6
20260505054000 55 273 1.7 2.6 0.00 0.00 0.00 57 1017.6
20260505052958 55 281 1.7 2.6 0.00 0.00 0.00 57 1017.7
20260505051959 55 280 0.9 2.6 0.00 0.00 0.00 57 1017.7
20260505051000 55 256 0.9 2.6 0.00 0.00 0.00 57 1017.7
20260505041000 56 252 0.9 2.6 0.00 0.00 0.00 55 1017.9
20260505040005 56 266 0.9 1.7 0.00 0.00 0.00 55 1017.9
20260505034001 57 243 0.9 2.6 0.00 0.00 0.00 55 1017.9
20260505033001 57 270 0.9 2.6 0.00 0.00 0.00 54 1018.0
20260505032001 57 264 0.9 2.6 0.00 0.00 0.00 55 1018.2
20260505031000 57 263 1.7 2.6 0.00 0.00 0.00 55 1018.2
20260505030002 57 248 0.9 2.6 0.00 0.00 0.00 55 1018.2
20260505023000 57 262 0.9 1.7 0.00 0.00 0.00 55 1018.1
20260505021001 57 271 0.9 1.7 0.00 0.00 0.00 55 1018.0
20260505020002 57 243 0.9 1.7 0.00 0.00 0.00 55 1018.0
20260505015001 57 263 0.9 1.7 0.00 0.00 0.00 55 1017.9
20260505012002 57 309 0.9 1.7 0.00 0.00 0.00 55 1017.8
20260505010959 57 259 0.0 1.7 0.00 0.00 0.00 55 1017.6
20260505010002 58 283 0.0 1.7 0.00 0.00 0.00 54 1017.8
20260505003959 59 256 0.0 0.9 0.00 0.00 0.00 52 1017.5
20260505003001 59 274 0.9 1.7 0.00 0.00 0.00 50 1017.3
20260505000002 61 359 0.9 0.9 0.00 0.00 0.00 46 1017.3
20260504235001 61 303 0.9 1.7 0.00 0.00 0.00 46 1017.1
20260504233001 61 246 0.0 0.9 0.00 0.00 0.00 45 1017.1
20260504230959 61 359 0.0 1.7 0.00 0.00 0.00 45 1017.0
20260504230001 61 267 0.0 0.9 0.00 0.00 0.00 46 1017.0
20260504225001 61 302 0.0 0.9 0.00 0.00 0.00 46 1017.0
20260504224001 62 302 0.0 0.9 0.00 0.00 0.00 44 1016.9
20260504223000 62 236 0.0 0.9 0.00 0.00 0.00 41 1017.1
20260504222000 62 242 0.0 0.9 0.00 0.00 0.00 43 1017.1
20260504220959 63 243 0.0 0.9 0.00 0.00 0.00 40 1017.2
20260504220004 63 249 0.0 0.9 0.00 0.00 0.00 39 1017.2
20260504215001 63 228 0.9 0.9 0.00 0.00 0.00 38 1017.2
20260504213959 64 256 0.9 1.7 0.00 0.00 0.00 37 1017.2
20260504213001 65 255 0.9 1.7 0.00 0.00 0.00 40 1017.2
20260504212000 65 248 0.9 1.7 0.00 0.00 0.00 38 1017.2
20260504211000 65 248 0.9 2.6 0.00 0.00 0.00 36 1017.1
20260504210002 66 250 0.9 1.7 0.00 0.00 0.00 39 1017.1
20260504204959 66 257 0.9 1.7 0.00 0.00 0.00 35 1017.2
20260504204001 67 248 0.9 1.7 0.00 0.00 0.00 33 1017.1
20260504203001 69 304 0.9 1.7 0.00 0.00 0.00 33 1017.1
20260504201001 70 326 0.0 1.7 0.00 0.00 0.00 37 1017.3
20260504200002 69 246 0.9 1.7 0.00 0.00 0.00 34 1017.4
20260504194959 69 50 0.9 3.5 0.00 0.00 0.00 35 1017.5
20260504194001 69 247 0.9 2.6 0.00 0.00 0.00 35 1017.6
20260504192959 69 20 0.9 4.3 0.00 0.00 0.00 34 1017.8
20260504191959 70 76 1.7 2.6 0.00 0.00 0.00 35 1017.8
20260504190958 71 355 0.9 2.6 0.00 0.00 0.00 35 1017.9
20260504190003 71 315 0.9 2.6 0.00 0.00 0.00 37 1017.9
20260504185001 70 360 0.9 2.6 0.00 0.00 0.00 36 1018.1
20260504184000 70 66 0.9 2.6 0.00 0.00 0.00 35 1018.2
20260504183000 70 191 0.9 3.5 0.00 0.00 0.00 33 1018.3
20260504182000 69 249 0.9 3.5 0.00 0.00 0.00 35 1018.4
20260504174959 70 276 0.9 2.6 0.00 0.00 0.00 29 1018.6
20260504173959 70 355 0.9 2.6 0.00 0.00 0.00 32 1018.8
20260504172000 70 278 0.0 2.6 0.00 0.00 0.00 31 1018.9
20260504151000 65 116 0.9 4.3 0.00 0.00 0.00 37 1020.2
20260504140959 61 225 0.9 4.3 0.00 0.00 0.00 40 1020.0
20260504082002 48 266 0.9 1.7 0.00 0.00 0.00 53 1018.7
20260504080959 48 269 0.9 1.7 0.00 0.00 0.00 53 1018.5